Starlink 11474

operational
NORAD ID: 62065 Int'l Des: 2024-217 Owner: SPXS Country: US Constellation: starlink
LEOCIRCULAR

About Starlink 11474

Description loading...

Live Position

Loading 3D Globe...

Upcoming Passes

Altitude History

Altitude vs Time

uPlot chart will show altitude changes over time

Two-Line Element Set

1 62065U 24217J 25258.38096787 .00471776 00000-0 36711-2 0 9997
2 62065 53.1555 215.1468 0002078 148.9138 211.2003 15.69781131 47645
Epoch: Sep 15, 2025 • Age: 14 hours

Current Status

Altitude 371.6 km
Velocity 7.69 km/s
Sub-Earth Point -37.76°S, 158.25°W
Launch Date Nov 24, 2024
Age 0.8 years
Type internet

Technical Details

Classification Payload
Mass 960.00 kg
Dry Mass 910.00 kg
Total Mass 960.00 kg
Length 0.30 m
Diameter 4.10 m
Span 29.00 m
Shape Box + pan
Manufacturer SPXS
Bus Type Starlink V2MD
Phase Status In Orbit
Owner/State SPXS/US

Large Constellations

Loading constellations...